Location: Armidale
(30.5016°S, 151.6662°E)
Time: 10:11:50
(UTC+10:00)

N. Korean satellite - Pass Details

Date: 21 May 2021
Orbit: 450 x 500 km, 97.2° (Epoch: 13 June)

Event Time Altitude Azimuth Distance (km) Brightness Sun altitude
Rises 18:04:18 0° 192° (SSW) 2,625 10.3 -13.1°
Reaches altitude 10° 18:07:11 10° 217° (SW) 1,728 9.6 -13.7°
Maximum altitude 18:09:14 14° 250° (WSW) 1,461 9.8 -14.1°
Drops below altitude 10° 18:11:17 10° 284° (WNW) 1,708 10.8 -14.5°
Sets 18:14:06 0° 309° (NW) 2,573 11.5 -15.1°
